Regional Weather Roundup
Issued by NWS Northern Indiana

Home | Current Version | Previous Version | Graphics & Text | Print | Product List | Glossary On
Versions: 1 2 3 4 5 6 7 8 9 10 11 12 13 14 15 16 17 18 19 20 21 22 23 24 25 26 27 28 29 30 31 32 33 34 35 36 37 38 39 40 41 42 43 44 45 46 47 48 49 50
000
ASUS43 KIWX 081800
RWRIWX

KIWX WEATHER ROUNDUP
NATIONAL WEATHER SERVICE NORTHERN INDIANA
100 PM EST THU DEC 08 2016

NOTE: "FAIR" INDICATES FEW OR NO CLOUDS BELOW 12,000 FEET WITH NO
SIGNIFICANT WEATHER AND/OR OBSTRUCTIONS TO VISIBILITY.

* THESE STATIONS ARE NOT UNDER NWS QUALITY CONTROL. THEY ALSO MAY NOT
  REPORT WEATHER SUCH AS PRECIPITATION OR FOG.

INZ001>027-081900-
NORTHERN INDIANA

CITY           SKY/WX    TMP DP  RH WIND       PRES   REMARKS
GARY*          CLOUDY    21  12  68 W14G39    30.30S WCI   8
SOUTH BEND     LGT SNOW  19  13  77 W20G28    30.22F WCI   3
6HR MIN TEMP:  19; 6HR MAX TEMP:  21; 6HR PCP: TRACE;

ELKHART*       LGT SNOW  21  16  79 W13G22    30.21S WCI   9
GOSHEN         FLURRIES  21  12  68 W20G26    30.21S WCI   6
6HR MIN TEMP:  21; 6HR MAX TEMP:  23; 6HR PCP: TRACE;

ANGOLA*        CLOUDY    21  16  79 W13       30.16R WCI   9
FORT WAYNE     FLURRIES  23  14  68 W23G29    30.22F WCI   7
6HR MIN TEMP:  22; 6HR MAX TEMP:  24; 6HR PCP: TRACE;

PERU/GRISSOM   FLURRIES  22  13  68 W24       30.26S WCI   6
6HR MIN TEMP:  21; 6HR MAX TEMP:  23; 6HR PCP: TRACE;


$$
INZ028>050-081900-
CENTRAL INDIANA

CITY           SKY/WX    TMP DP  RH WIND       PRES   REMARKS
LAFAYETTE      FLURRIES  22  14  71 W23G30    30.32F WCI   6
6HR MIN TEMP:  20; 6HR MAX TEMP:  22; 6HR PCP: TRACE;

KOKOMO*        FLURRIES  22  15  75 W25G31    30.28S WCI   5
6HR MIN TEMP:  21; 6HR MAX TEMP:  23; 6HR PCP: TRACE;

MUNCIE*        CLOUDY    24  14  65 W21G26    30.26F WCI   9
6HR MIN TEMP:  22; 6HR MAX TEMP:  24; 6HR PCP: TRACE;

INDIANAPOLIS   FLURRIES  23  13  65 W18       30.33F WCI   9
6HR MIN TEMP:  20; 6HR MAX TEMP:  23; 6HR PCP: TRACE;


$$
MIZ043>046-050>051-056>058-064>065-071>073-077>080-081900-
SOUTHWEST LOWER MICHIGAN

CITY           SKY/WX    TMP DP  RH WIND       PRES   REMARKS
BATTLE CREEK   LGT SNOW  25  20  81 W12       30.13R WCI  14
6HR MIN TEMP:  24; 6HR MAX TEMP:  27; 6HR PCP:  0.01;

BENTON HARBOR  CLOUDY    24  17  74 W24G33    30.21R WCI   8
6HR MIN TEMP:  24; 6HR MAX TEMP:  28; 6HR PCP: TRACE;

COLDWATER*     LGT SNOW  23  19  85 W16       30.15R WCI   9
6HR MIN TEMP:  23; 6HR MAX TEMP:  25;

HILLSDALE*     LGT SNOW  23  18  80 W16G24    30.11R WCI  10
HOLLAND        LGT SNOW  26  19  74 W14G22    30.15R WCI  14
6HR MIN TEMP:  25; 6HR MAX TEMP:  27; 6HR PCP:  0.04;

GRAND RAPIDS   LGT SNOW  25  19  78 W14       30.12R WCI  13
6HR MIN TEMP:  24; 6HR MAX TEMP:  27; 6HR PCP: TRACE;

KALAMAZOO      LGT SNOW  24  17  74 W16       30.15R WCI  11
6HR MIN TEMP:  24; 6HR MAX TEMP:  27; 6HR PCP:  0.01;

STURGIS*       LGT SNOW  21  17  84 W15G21    30.17R WCI   8
6HR MIN TEMP:  21; 6HR MAX TEMP:  24;

THREE RIVERS*  FLURRIES  24  18  78 W13G21    30.17S WCI  12

$$
OHZ001>008-015>018-024>025-081900-
NORTHWEST OHIO

CITY           SKY/WX    TMP DP  RH WIND       PRES   REMARKS
DEFIANCE       CLOUDY    26  14  60 W12G21    30.19S WCI  16
6HR MIN TEMP:  25; 6HR MAX TEMP:  26; 6HR PCP: TRACE;

FINDLAY        CLOUDY    25  14  63 W24G30    30.18S WCI   9
6HR MIN TEMP:  24; 6HR MAX TEMP:  27; 6HR PCP: TRACE;

TOLEDO EXPRESS CLOUDY    25  17  72 W20G29    30.15S WCI  11
6HR MIN TEMP:  24; 6HR MAX TEMP:  26; 6HR PCP: TRACE;

TOLEDO METCALF CLOUDY    26  18  71 W22G30    30.16S WCI  12
6HR MIN TEMP:  26; 6HR MAX TEMP:  27; 6HR PCP: TRACE;

LIMA           LGT SNOW  22  17  81 W22G29    30.21S WCI   6
6HR MIN TEMP:  22; 6HR MAX TEMP:  24; 6HR PCP: TRACE;


$$
AND FOR LAKE MICHIGAN COASTAL AND OPEN LAKE BUOY OBSERVATIONS

STATION/POSITION TEMP    WIND        PRES    VSBY  WAVE
                 AIR SEA DIR/SP/G                  HT/PER
                 (F)     (DEG/KT/KT) (MB)    (MI)  (FT/S)
CALUMET HARBOR    19     250/ 13/ 24 1024.6S
MICHIGAN CITY     21     230/ 27/ 33   N/A
BURNS HARBOR      21     270/ 21/ 27 1025.4S
SAINT JOSEPH      26     260/ 23     1023.7S

$$
&&




USA.gov is the U.S. government's official web portal to all federal, state and local government web resources and services.